Syracuse, NY

1:41 PM EST on February 12, 2016 (GMT -0500)
Syracuse Hancock International

Weather History for KSYR - May, 2011

Change the Weather History Date:

Thursday, May 12, 2011

  Actual Average Record
Temperature  
Mean Temperature 66 °F 56 °F  
Max Temperature 81 °F 68 °F 84 °F (1985)
Min Temperature 50 °F 45 °F 30 °F (1963)
Degree Days  
Heating Degree Days 0 9  
Month to date heating degree days 114 128  
Since 1 July heating degree days 6563 6463  
Cooling Degree Days 1 1  
Month to date cooling degree days 1 2  
Year to date cooling degree days 13 6  
Growing Degree Days 16 (Base 50)    
Moisture  
Dew Point 47 °F    
Average Humidity 56    
Maximum Humidity 83    
Minimum Humidity 29    
Precipitation  
Precipitation T in 0.10 in 1.29 in (1914)
Month to date precipitation 1.19 1.19  
Year to date precipitation 16.66 11.90  
Snow  
Snow 0.00 in 0.00 in 2.10 in (1996)
Month to date snowfall 0.0 0.1  
Since 1 July snowfall 179.0 123.8  
Snow Depth 0.00 in    
Sea Level Pressure  
Sea Level Pressure 29.97 in    
Wind  
Wind Speed 5 mph (ESE)    
Max Wind Speed 10 mph    
Max Gust Speed 14 mph    
Visibility 10 miles    
Events      
T = Trace of Precipitation, MM = Missing Value Source: NWS Daily Summary

Daily Weather History Graph

Daily Weather History Graph

Search for Another Location

Airport or City:

Trip Planner

Search our weather history database for the weather conditions in past years. The results will help you decide how hot, cold, wet, or windy it might be!

Date:

Astronomy

May. 12, 2011 Rise Set
Actual Time 5:44 AM EDT 8:17 PM EDT
Civil Twilight 5:12 AM EDT 8:50 PM EDT
Nautical Twilight 4:31 AM EDT 9:30 PM EDT
Astronomical Twilight 3:46 AM EDT 10:16 PM EDT
Moon 2:48 PM EDT 2:34 AM EDT
Length of Visible Light 15h 38m
Length of Day
14h 33m
Waxing Gibbous, 70% of the Moon is Illuminated
May 12
Waxing Gibbous
May 17
Full
May 24
Last Quarter
Jun 1
New
Jun 8
First Quarter

Hourly Weather History & Observations

Time (EDT) Temp. Dew Point Humidity Pressure Visibility Wind Dir Wind Speed Gust Speed Precip Events Conditions
12:54 AM 55.9 °F 48.9 °F 77% 30.04 in 10.0 mi ESE 6.9 mph - N/A   Scattered Clouds
1:54 AM 54.0 °F 48.9 °F 83% 30.04 in 10.0 mi ESE 4.6 mph - N/A   Scattered Clouds
2:54 AM 54.0 °F 46.9 °F 77% 30.04 in 10.0 mi East 3.5 mph - N/A   Scattered Clouds
3:54 AM 52.0 °F 46.0 °F 80% 30.06 in 10.0 mi Calm Calm - N/A   Scattered Clouds
4:54 AM 51.1 °F 46.0 °F 83% 30.05 in 10.0 mi ESE 4.6 mph - N/A   Partly Cloudy
5:54 AM 51.1 °F 45.0 °F 80% 30.04 in 10.0 mi ESE 5.8 mph - N/A   Scattered Clouds
6:54 AM 53.1 °F 46.9 °F 80% 30.04 in 10.0 mi ESE 8.1 mph - N/A   Scattered Clouds
7:54 AM 57.9 °F 48.9 °F 72% 30.03 in 10.0 mi ESE 6.9 mph - N/A   Mostly Cloudy
8:54 AM 64.0 °F 50.0 °F 60% 30.02 in 10.0 mi ESE 5.8 mph - N/A   Mostly Cloudy
9:54 AM 69.1 °F 51.1 °F 53% 30.01 in 10.0 mi Variable 3.5 mph - N/A   Mostly Cloudy
10:54 AM 71.1 °F 51.1 °F 49% 30.01 in 10.0 mi ESE 4.6 mph - N/A   Mostly Cloudy
11:54 AM 73.9 °F 52.0 °F 46% 30.00 in 10.0 mi Calm Calm - N/A   Mostly Cloudy
12:54 PM 75.9 °F 51.1 °F 42% 29.98 in 10.0 mi SE 10.4 mph - N/A   Scattered Clouds
1:54 PM 77.0 °F 51.1 °F 40% 29.96 in 10.0 mi East 9.2 mph - N/A   Scattered Clouds
2:54 PM 79.0 °F 48.9 °F 35% 29.93 in 10.0 mi East 4.6 mph - N/A   Scattered Clouds
3:54 PM 80.1 °F 48.9 °F 34% 29.91 in 10.0 mi NE 6.9 mph - N/A   Overcast
4:54 PM 79.0 °F 46.9 °F 32% 29.91 in 10.0 mi North 9.2 mph - N/A   Overcast
5:54 PM 77.0 °F 45.0 °F 32% 29.89 in 10.0 mi East 5.8 mph - N/A   Overcast
6:54 PM 75.9 °F 41.0 °F 29% 29.88 in 10.0 mi East 5.8 mph - N/A   Overcast
7:54 PM 73.0 °F 41.0 °F 31% 29.87 in 10.0 mi East 3.5 mph - N/A   Overcast
8:54 PM 70.0 °F 39.0 °F 32% 29.87 in 10.0 mi Calm Calm - N/A   Mostly Cloudy
9:54 PM 64.0 °F 45.0 °F 50% 29.88 in 10.0 mi Calm Calm - N/A   Mostly Cloudy
10:54 PM 64.9 °F 48.0 °F 54% 29.87 in 10.0 mi ESE 4.6 mph - N/A   Scattered Clouds
11:54 PM 64.0 °F 48.0 °F 56% 29.86 in 10.0 mi SE 5.8 mph - 0.00 in   Overcast